Simultaneous Nadir Overpasses (SNOs) Predictions

Prediction of SNOs between GOES-16 and METOP-C Satellite Orbit:

Table of predicted SNOs for the next 14.0 days since TLE Epoch: 6/3/2023
Index Date Time (GOES-16) GOES-16 Lat,Lon METOP-C Lat,Lon Distance(km) Time Diff (sec)
1 06/03/2023 02:46:33 0.01, -75.19 0.00, -78.76 397.17 80
2 06/04/2023 02:23:00 0.02, -75.19 0.35, -73.60 181.55 80
3 06/05/2023 14:44:29 -0.02, -75.21 0.64, -78.15 336.05 80
4 06/06/2023 14:21:09 -0.03, -75.21 -0.48, -73.16 233.50 80
5 06/08/2023 02:42:49 0.03, -75.21 -0.51, -77.76 290.61 80
6 06/09/2023 02:19:29 0.04, -75.21 0.61, -72.76 279.38 80
7 06/10/2023 14:40:57 -0.04, -75.23 0.43, -77.31 236.85 80
8 06/11/2023 14:17:36 -0.05, -75.25 -0.70, -72.32 333.86 80
9 06/13/2023 02:39:16 0.04, -75.26 -0.34, -76.91 188.23 80
10 06/14/2023 02:15:55 0.04, -75.27 0.79, -71.91 382.83 80
11 06/15/2023 14:37:24 -0.04, -75.31 0.24, -76.46 132.12 80
12 06/16/2023 14:14:03 -0.04, -75.32 -0.89, -71.47 439.19 80
